Location: Espelette
(43.3402°N, 1.4474°W)
Time: 14:31:10
(UTC+00:00)

Ariane Rocket - Pass Details

Date: 19 May 2025
Orbit: 755 x 764 km, 98.5° (Epoch: 17 June)

Event Time Altitude Azimuth Distance (km) Brightness Sun altitude
Exits shadow 21:17:01 27° 140° (SE) 1,436 3.8 -16.2°
Maximum altitude 21:19:39 58° 72° (ENE) 892 3.2 -16.5°
Drops below altitude 10° 21:24:37 10° 354° (N) 2,308 6.3 -17.1°
Sets 21:26:58 0° 351° (N) 3,239 7.3 -17.3°
